| time (UTC) | temp C | wind direction | speed KPH | gust KPH | rain 1hr cm | rain 24hr cm | rain mn cm | humidity % | barometer mb |
| 20260502152126 | 9 | 314 | 6.4 | 11.3 | 0.00 | 0.00 | 0.00 | 49 | 1016.7 |
| 20260502151623 | 10 | 5 | 4.8 | 6.4 | 0.00 | 0.00 | 0.00 | 52 | 1016.7 |
| 20260502151120 | 9 | 321 | 3.2 | 14.5 | 0.00 | 0.00 | 0.00 | 51 | 1017.0 |
| 20260502150618 | 9 | 275 | 9.7 | 16.1 | 0.00 | 0.00 | 0.00 | 55 | 1016.7 |
| 20260502150114 | 9 | 296 | 1.6 | 4.8 | 0.00 | 0.00 | 0.00 | 56 | 1016.9 |
| 20260502130503 | 6 | 351 | 0.0 | 0.0 | 0.00 | 0.00 | 0.00 | 86 | 1017.0 |
| 20260502123445 | 4 | 303 | 0.0 | 0.0 | 0.00 | 0.00 | 0.00 | 97 | 1016.9 |
| 20260502122943 | 3 | 303 | 0.0 | 0.0 | 0.00 | 0.00 | 0.00 | 98 | 1017.1 |
| 20260502122438 | 3 | 302 | 0.0 | 0.0 | 0.00 | 0.00 | 0.00 | 98 | 1017.1 |
| 20260502121937 | 2 | 303 | 0.0 | 0.0 | 0.00 | 0.00 | 0.00 | 99 | 1017.1 |
| 20260502121433 | 2 | 302 | 0.0 | 0.0 | 0.00 | 0.00 | 0.00 | 99 | 1017.3 |
| 20260502120931 | 2 | 304 | 0.0 | 0.0 | 0.00 | 0.00 | 0.00 | 99 | 1017.2 |
| 20260502120427 | 2 | 304 | 0.0 | 0.0 | 0.00 | 0.00 | 0.00 | 99 | 1017.3 |
| 20260502115925 | 1 | 304 | 0.0 | 0.0 | 0.00 | 0.00 | 0.00 | 99 | 1017.3 |
| 20260502115422 | 1 | 304 | 0.0 | 0.0 | 0.00 | 0.00 | 0.00 | 99 | 1017.3 |
| 20260502114918 | 1 | 305 | 0.0 | 0.0 | 0.00 | 0.00 | 0.00 | 99 | 1017.1 |
| 20260502114415 | 1 | 305 | 0.0 | 0.0 | 0.00 | 0.00 | 0.00 | 99 | 1017.0 |
| 20260502113912 | 1 | 304 | 0.0 | 0.0 | 0.00 | 0.00 | 0.00 | 99 | 1017.1 |
| 20260502113410 | 1 | 304 | 0.0 | 0.0 | 0.00 | 0.00 | 0.00 | 99 | 1017.1 |
| 20260502112908 | 0 | 304 | 0.0 | 0.0 | 0.00 | 0.00 | 0.00 | 99 | 1017.1 |
| 20260502112405 | 0 | 304 | 0.0 | 0.0 | 0.00 | 0.00 | 0.00 | 99 | 1017.0 |
| 20260502111902 | 0 | 304 | 0.0 | 0.0 | 0.00 | 0.00 | 0.00 | 99 | 1017.0 |
| 20260502111359 | 0 | 304 | 0.0 | 0.0 | 0.00 | 0.00 | 0.00 | 99 | 1016.9 |
| 20260502110857 | 0 | 304 | 0.0 | 0.0 | 0.00 | 0.00 | 0.00 | 99 | 1016.9 |
| 20260502110355 | 0 | 304 | 0.0 | 0.0 | 0.00 | 0.00 | 0.00 | 99 | 1016.9 |
| 20260502105852 | 0 | 304 | 0.0 | 0.0 | 0.00 | 0.00 | 0.00 | 99 | 1017.0 |
| 20260502105349 | 0 | 304 | 0.0 | 0.0 | 0.00 | 0.00 | 0.00 | 99 | 1017.2 |
| 20260502104847 | 0 | 304 | 0.0 | 0.0 | 0.00 | 0.00 | 0.00 | 99 | 1017.2 |
| 20260502104344 | 0 | 304 | 0.0 | 0.0 | 0.00 | 0.00 | 0.00 | 99 | 1017.2 |
| 20260502103840 | 0 | 304 | 0.0 | 0.0 | 0.00 | 0.00 | 0.00 | 99 | 1017.2 |
| 20260502103338 | 0 | 304 | 0.0 | 0.0 | 0.00 | 0.00 | 0.00 | 99 | 1017.1 |
| 20260502102835 | 0 | 304 | 0.0 | 0.0 | 0.00 | 0.00 | 0.00 | 99 | 1017.0 |
| 20260502102331 | 0 | 304 | 0.0 | 0.0 | 0.00 | 0.00 | 0.00 | 99 | 1017.1 |
| 20260502101829 | 0 | 304 | 0.0 | 0.0 | 0.00 | 0.00 | 0.00 | 99 | 1017.1 |
| 20260502101327 | 0 | 304 | 0.0 | 0.0 | 0.00 | 0.00 | 0.00 | 99 | 1017.1 |
| 20260502100826 | 0 | 304 | 0.0 | 0.0 | 0.00 | 0.00 | 0.00 | 99 | 1017.1 |
| 20260502100324 | 0 | 304 | 0.0 | 0.0 | 0.00 | 0.00 | 0.00 | 99 | 1017.1 |
| 20260502091258 | 0 | 304 | 0.0 | 0.0 | 0.00 | 0.00 | 0.00 | 99 | 1017.2 |
| 20260502090755 | 0 | 304 | 0.0 | 0.0 | 0.00 | 0.00 | 0.00 | 99 | 1017.1 |
| 20260502090252 | 0 | 304 | 0.0 | 0.0 | 0.00 | 0.00 | 0.00 | 99 | 1017.2 |
| 20260502071153 | 1 | 305 | 0.0 | 0.0 | 0.00 | 0.00 | 0.00 | 98 | 1016.7 |
| 20260502070651 | 1 | 305 | 0.0 | 0.0 | 0.00 | 0.00 | 0.00 | 98 | 1016.8 |
| 20260502070149 | 1 | 305 | 0.0 | 0.0 | 0.00 | 0.00 | 0.00 | 98 | 1016.7 |
| 20260502065647 | 1 | 305 | 0.0 | 0.0 | 0.00 | 0.00 | 0.00 | 98 | 1016.8 |
| 20260502065144 | 1 | 305 | 0.0 | 0.0 | 0.00 | 0.00 | 0.00 | 98 | 1017.0 |
| 20260502064643 | 1 | 305 | 0.0 | 0.0 | 0.00 | 0.00 | 0.00 | 98 | 1017.1 |
| 20260502064139 | 1 | 305 | 0.0 | 0.0 | 0.00 | 0.00 | 0.00 | 98 | 1017.0 |
| 20260502063637 | 1 | 305 | 0.0 | 0.0 | 0.00 | 0.00 | 0.00 | 98 | 1017.1 |
| 20260502063135 | 1 | 305 | 0.0 | 0.0 | 0.00 | 0.00 | 0.00 | 98 | 1017.1 |
| 20260502062632 | 1 | 305 | 0.0 | 0.0 | 0.00 | 0.00 | 0.00 | 98 | 1017.1 |
| 20260502062129 | 1 | 305 | 0.0 | 0.0 | 0.00 | 0.00 | 0.00 | 98 | 1017.0 |
| 20260502061628 | 1 | 305 | 0.0 | 0.0 | 0.00 | 0.00 | 0.00 | 98 | 1017.3 |
| 20260502061125 | 1 | 305 | 0.0 | 0.0 | 0.00 | 0.00 | 0.00 | 98 | 1017.3 |
| 20260502060624 | 1 | 306 | 0.0 | 0.0 | 0.00 | 0.00 | 0.00 | 98 | 1017.3 |
| 20260502060121 | 1 | 306 | 0.0 | 0.0 | 0.00 | 0.00 | 0.00 | 97 | 1017.3 |
| 20260502055619 | 1 | 306 | 0.0 | 0.0 | 0.00 | 0.00 | 0.00 | 97 | 1017.4 |
| 20260502055117 | 1 | 306 | 0.0 | 0.0 | 0.00 | 0.00 | 0.00 | 97 | 1017.5 |
| 20260502054616 | 1 | 306 | 0.0 | 0.0 | 0.00 | 0.00 | 0.00 | 97 | 1017.4 |
| 20260502054113 | 1 | 306 | 0.0 | 0.0 | 0.00 | 0.00 | 0.00 | 97 | 1017.5 |
| 20260502053610 | 1 | 306 | 0.0 | 0.0 | 0.00 | 0.00 | 0.00 | 97 | 1017.5 |
| 20260502053107 | 1 | 305 | 0.0 | 0.0 | 0.00 | 0.00 | 0.00 | 97 | 1017.4 |
| 20260502052606 | 1 | 305 | 0.0 | 0.0 | 0.00 | 0.00 | 0.00 | 97 | 1017.6 |
| 20260502052104 | 1 | 305 | 0.0 | 0.0 | 0.00 | 0.00 | 0.00 | 97 | 1017.6 |
| 20260502051601 | 1 | 306 | 0.0 | 0.0 | 0.00 | 0.00 | 0.00 | 97 | 1017.3 |
| 20260502051059 | 1 | 306 | 0.0 | 0.0 | 0.00 | 0.00 | 0.00 | 97 | 1017.7 |
| 20260502050555 | 1 | 306 | 0.0 | 0.0 | 0.00 | 0.00 | 0.00 | 97 | 1017.6 |
| 20260502050052 | 2 | 305 | 0.0 | 0.0 | 0.00 | 0.00 | 0.00 | 97 | 1017.7 |
| 20260502045548 | 2 | 305 | 0.0 | 0.0 | 0.00 | 0.00 | 0.00 | 97 | 1017.7 |
| 20260502045046 | 2 | 306 | 0.0 | 0.0 | 0.00 | 0.00 | 0.00 | 97 | 1017.7 |
| 20260502044542 | 2 | 305 | 0.0 | 0.0 | 0.00 | 0.00 | 0.00 | 96 | 1017.7 |
| 20260502044039 | 2 | 305 | 0.0 | 0.0 | 0.00 | 0.00 | 0.00 | 96 | 1017.8 |
| 20260502043537 | 2 | 305 | 0.0 | 0.0 | 0.00 | 0.00 | 0.00 | 96 | 1017.6 |
| 20260502043032 | 2 | 305 | 0.0 | 0.0 | 0.00 | 0.00 | 0.00 | 96 | 1017.5 |
| 20260502042527 | 2 | 305 | 0.0 | 0.0 | 0.00 | 0.00 | 0.00 | 96 | 1017.5 |
| 20260502042025 | 2 | 306 | 0.0 | 0.0 | 0.00 | 0.00 | 0.00 | 96 | 1017.5 |
| 20260502041523 | 2 | 311 | 0.0 | 0.0 | 0.00 | 0.00 | 0.00 | 95 | 1017.5 |
| 20260502041020 | 2 | 311 | 0.0 | 0.0 | 0.00 | 0.00 | 0.00 | 95 | 1017.5 |
| 20260502040516 | 2 | 311 | 0.0 | 0.0 | 0.00 | 0.00 | 0.00 | 95 | 1017.4 |
| 20260502040014 | 3 | 311 | 0.0 | 0.0 | 0.00 | 0.00 | 0.00 | 95 | 1017.3 |
| 20260502035509 | 3 | 311 | 0.0 | 0.0 | 0.00 | 0.00 | 0.00 | 95 | 1017.3 |
| 20260502035007 | 3 | 311 | 0.0 | 0.0 | 0.00 | 0.00 | 0.00 | 94 | 1017.4 |
| 20260502034505 | 3 | 311 | 0.0 | 0.0 | 0.00 | 0.00 | 0.00 | 94 | 1017.4 |
| 20260502034003 | 3 | 311 | 0.0 | 0.0 | 0.00 | 0.00 | 0.00 | 94 | 1017.2 |
| 20260502033500 | 3 | 311 | 0.0 | 0.0 | 0.00 | 0.00 | 0.00 | 94 | 1017.2 |
| 20260502032957 | 4 | 311 | 0.0 | 0.0 | 0.00 | 0.00 | 0.00 | 93 | 1017.4 |
| 20260502032453 | 4 | 311 | 0.0 | 0.0 | 0.00 | 0.00 | 0.00 | 92 | 1017.3 |
| 20260502031950 | 4 | 311 | 0.0 | 0.0 | 0.00 | 0.00 | 0.00 | 91 | 1017.6 |
| 20260502031449 | 4 | 311 | 0.0 | 0.0 | 0.00 | 0.00 | 0.00 | 90 | 1017.5 |
| 20260502030947 | 5 | 311 | 0.0 | 0.0 | 0.00 | 0.00 | 0.00 | 90 | 1017.4 |
| 20260502030445 | 5 | 311 | 0.0 | 0.0 | 0.00 | 0.00 | 0.00 | 89 | 1017.4 |
| 20260502025942 | 5 | 311 | 0.0 | 0.0 | 0.00 | 0.00 | 0.00 | 89 | 1017.4 |
| 20260502025439 | 5 | 311 | 0.0 | 0.0 | 0.00 | 0.00 | 0.00 | 88 | 1017.5 |
| 20260502024937 | 5 | 311 | 0.0 | 0.0 | 0.00 | 0.00 | 0.00 | 88 | 1017.4 |
| 20260502024435 | 6 | 311 | 1.6 | 1.6 | 0.00 | 0.00 | 0.00 | 86 | 1017.2 |
| 20260502023933 | 6 | 313 | 0.0 | 0.0 | 0.00 | 0.00 | 0.00 | 84 | 1017.2 |
| 20260502023430 | 7 | 313 | 0.0 | 1.6 | 0.00 | 0.00 | 0.00 | 82 | 1017.3 |
| 20260502022927 | 7 | 313 | 0.0 | 0.0 | 0.00 | 0.00 | 0.00 | 78 | 1017.0 |
| 20260502022424 | 7 | 313 | 0.0 | 0.0 | 0.00 | 0.00 | 0.00 | 76 | 1016.9 |
| 20260502021921 | 7 | 314 | 3.2 | 3.2 | 0.00 | 0.00 | 0.00 | 76 | 1017.0 |
| 20260502021418 | 7 | 313 | 0.0 | 0.0 | 0.00 | 0.00 | 0.00 | 75 | 1016.7 |
| 20260502020915 | 7 | 316 | 4.8 | 4.8 | 0.00 | 0.00 | 0.00 | 74 | 1016.7 |
| 20260502020413 | 8 | 314 | 1.6 | 1.6 | 0.00 | 0.00 | 0.00 | 74 | 1016.8 |
| 20260502015909 | 8 | 315 | 0.0 | 6.4 | 0.00 | 0.00 | 0.00 | 73 | 1016.6 |
| 20260502015407 | 8 | 312 | 3.2 | 3.2 | 0.00 | 0.00 | 0.00 | 72 | 1016.6 |
| 20260502014904 | 8 | 311 | 6.4 | 9.7 | 0.00 | 0.00 | 0.00 | 72 | 1016.4 |
| 20260502014400 | 8 | 314 | 9.7 | 17.7 | 0.00 | 0.00 | 0.00 | 72 | 1016.6 |
| 20260502013856 | 8 | 322 | 4.8 | 4.8 | 0.00 | 0.00 | 0.00 | 70 | 1016.5 |
| 20260502013352 | 8 | 323 | 1.6 | 4.8 | 0.00 | 0.00 | 0.00 | 70 | 1016.1 |
| 20260502012849 | 8 | 314 | 0.0 | 4.8 | 0.00 | 0.00 | 0.00 | 70 | 1016.0 |
| 20260502012347 | 8 | 330 | 4.8 | 6.4 | 0.00 | 0.00 | 0.00 | 71 | 1016.1 |
| 20260502011844 | 9 | 314 | 4.8 | 4.8 | 0.00 | 0.00 | 0.00 | 69 | 1015.8 |
| 20260502011340 | 9 | 345 | 1.6 | 4.8 | 0.00 | 0.00 | 0.00 | 70 | 1015.8 |
| 20260502010838 | 9 | 317 | 3.2 | 9.7 | 0.00 | 0.00 | 0.00 | 69 | 1015.5 |
| 20260502010334 | 9 | 320 | 0.0 | 11.3 | 0.00 | 0.00 | 0.00 | 68 | 1015.3 |
| 20260502005831 | 9 | 329 | 11.3 | 14.5 | 0.00 | 0.00 | 0.00 | 69 | 1015.6 |
| 20260502005329 | 9 | 338 | 8.0 | 16.1 | 0.00 | 0.00 | 0.00 | 71 | 1015.7 |
| 20260502004826 | 10 | 320 | 8.0 | 16.1 | 0.00 | 0.00 | 0.00 | 73 | 1015.4 |
| 20260502004322 | 10 | 352 | 3.2 | 17.7 | 0.00 | 0.00 | 0.00 | 75 | 1015.2 |
| 20260502003820 | 10 | 303 | 9.7 | 17.7 | 0.00 | 0.00 | 0.00 | 80 | 1015.2 |
| 20260502003317 | 10 | 303 | 0.0 | 3.2 | 0.00 | 0.00 | 0.00 | 87 | 1014.8 |
| 20260502002813 | 9 | 273 | 0.0 | 0.0 | 0.00 | 0.00 | 0.00 | 83 | 1014.4 |
| 20260502002310 | 10 | 273 | 0.0 | 0.0 | 0.00 | 0.00 | 0.00 | 83 | 1014.3 |
| 20260502001808 | 10 | 273 | 1.6 | 1.6 | 0.00 | 0.00 | 0.00 | 82 | 1014.1 |
| 20260502001305 | 10 | 273 | 0.0 | 0.0 | 0.00 | 0.00 | 0.00 | 82 | 1013.8 |
| 20260502000757 | 10 | 273 | 0.0 | 0.0 | 0.00 | 0.00 | 0.00 | 80 | 1013.7 |
| 20260502000256 | 10 | 273 | 0.0 | 1.6 | 0.00 | 0.00 | 0.00 | 81 | 1013.8 |
| 20260501235756 | 10 | 273 | 0.0 | 1.6 | 0.00 | 0.00 | 0.00 | 82 | 1013.6 |
| 20260501235252 | 10 | 272 | 0.0 | 1.6 | 0.00 | 0.00 | 0.00 | 81 | 1013.6 |
| 20260501234748 | 10 | 273 | 0.0 | 0.0 | 0.00 | 0.00 | 0.00 | 79 | 1013.7 |
| 20260501234245 | 10 | 273 | 0.0 | 1.6 | 0.00 | 0.00 | 0.00 | 79 | 1013.6 |
| 20260501233743 | 10 | 272 | 1.6 | 1.6 | 0.00 | 0.00 | 0.00 | 79 | 1013.6 |
| 20260501233241 | 10 | 269 | 1.6 | 3.2 | 0.00 | 0.00 | 0.00 | 78 | 1013.6 |
| 20260501232736 | 10 | 245 | 1.6 | 3.2 | 0.00 | 0.00 | 0.00 | 79 | 1013.7 |
| 20260501232233 | 10 | 276 | 0.0 | 1.6 | 0.00 | 0.00 | 0.00 | 78 | 1013.5 |
| 20260501231731 | 10 | 276 | 1.6 | 1.6 | 0.00 | 0.00 | 0.00 | 79 | 1013.4 |
| 20260501231229 | 10 | 285 | 1.6 | 3.2 | 0.00 | 0.00 | 0.00 | 79 | 1013.4 |
| 20260501230727 | 10 | 273 | 1.6 | 3.2 | 0.00 | 0.00 | 0.00 | 80 | 1013.5 |
| 20260501230225 | 10 | 269 | 1.6 | 3.2 | 0.00 | 0.00 | 0.00 | 80 | 1013.5 |
| 20260501225722 | 10 | 244 | 1.6 | 1.6 | 0.00 | 0.00 | 0.00 | 79 | 1013.4 |
| 20260501225219 | 10 | 239 | 3.2 | 3.2 | 0.00 | 0.00 | 0.00 | 77 | 1013.4 |
| 20260501224715 | 10 | 314 | 0.0 | 4.8 | 0.00 | 0.00 | 0.00 | 76 | 1013.4 |
| 20260501224213 | 10 | 253 | 3.2 | 4.8 | 0.00 | 0.00 | 0.00 | 76 | 1013.2 |
| 20260501223709 | 10 | 260 | 3.2 | 3.2 | 0.00 | 0.00 | 0.00 | 79 | 1013.4 |
| 20260501223205 | 10 | 270 | 4.8 | 6.4 | 0.00 | 0.00 | 0.00 | 78 | 1013.2 |
| 20260501222701 | 10 | 259 | 3.2 | 4.8 | 0.00 | 0.00 | 0.00 | 79 | 1013.4 |
| 20260501222159 | 10 | 308 | 1.6 | 4.8 | 0.00 | 0.00 | 0.00 | 80 | 1013.5 |
| 20260501221655 | 10 | 262 | 3.2 | 3.2 | 0.00 | 0.00 | 0.00 | 80 | 1013.4 |
| 20260501221153 | 10 | 308 | 3.2 | 3.2 | 0.00 | 0.00 | 0.00 | 80 | 1013.6 |
| 20260501220650 | 10 | 285 | 3.2 | 11.3 | 0.00 | 0.00 | 0.00 | 81 | 1013.7 |
| 20260501220147 | 10 | 283 | 3.2 | 11.3 | 0.00 | 0.00 | 0.00 | 80 | 1013.4 |
| 20260501215644 | 11 | 323 | 6.4 | 12.9 | 0.00 | 0.00 | 0.00 | 75 | 1013.7 |
| 20260501215139 | 11 | 316 | 9.7 | 12.9 | 0.00 | 0.00 | 0.00 | 76 | 1013.5 |
| 20260501214634 | 11 | 319 | 6.4 | 22.5 | 0.00 | 0.00 | 0.00 | 76 | 1013.5 |
| 20260501214130 | 11 | 313 | 9.7 | 12.9 | 0.00 | 0.00 | 0.00 | 78 | 1013.3 |
| 20260501213627 | 11 | 309 | 8.0 | 14.5 | 0.00 | 0.00 | 0.00 | 77 | 1013.4 |
| 20260501213123 | 11 | 327 | 3.2 | 4.8 | 0.00 | 0.00 | 0.00 | 78 | 1013.3 |
| 20260501212620 | 11 | 281 | 8.0 | 12.9 | 0.00 | 0.00 | 0.00 | 77 | 1013.5 |
| 20260501212117 | 11 | 290 | 4.8 | 9.7 | 0.00 | 0.00 | 0.00 | 78 | 1013.4 |
| 20260501211613 | 11 | 309 | 11.3 | 16.1 | 0.00 | 0.00 | 0.00 | 76 | 1013.3 |
| 20260501211111 | 11 | 322 | 0.0 | 6.4 | 0.00 | 0.00 | 0.00 | 76 | 1013.2 |
| 20260501210608 | 11 | 304 | 6.4 | 9.7 | 0.00 | 0.00 | 0.00 | 75 | 1013.2 |
| 20260501210104 | 12 | 314 | 12.9 | 17.7 | 0.00 | 0.00 | 0.00 | 76 | 1013.1 |
| 20260501205601 | 12 | 318 | 11.3 | 14.5 | 0.00 | 0.00 | 0.00 | 75 | 1013.0 |
| 20260501205059 | 12 | 320 | 8.0 | 14.5 | 0.00 | 0.00 | 0.00 | 73 | 1012.8 |
| 20260501204555 | 12 | 314 | 3.2 | 9.7 | 0.00 | 0.00 | 0.00 | 74 | 1012.7 |
| 20260501204051 | 12 | 311 | 6.4 | 9.7 | 0.00 | 0.00 | 0.00 | 73 | 1013.0 |
| 20260501203547 | 12 | 280 | 3.2 | 9.7 | 0.00 | 0.00 | 0.00 | 74 | 1013.0 |
| 20260501203045 | 12 | 310 | 8.0 | 9.7 | 0.00 | 0.00 | 0.00 | 74 | 1012.8 |
| 20260501202542 | 12 | 316 | 8.0 | 9.7 | 0.00 | 0.00 | 0.00 | 74 | 1012.8 |
| 20260501202039 | 12 | 319 | 4.8 | 20.9 | 0.00 | 0.00 | 0.00 | 73 | 1012.7 |
| 20260501201536 | 13 | 325 | 12.9 | 16.1 | 0.00 | 0.00 | 0.00 | 65 | 1012.7 |
| 20260501201032 | 13 | 321 | 4.8 | 16.1 | 0.00 | 0.00 | 0.00 | 64 | 1012.8 |
| 20260501200529 | 13 | 317 | 16.1 | 22.5 | 0.00 | 0.00 | 0.00 | 64 | 1012.6 |
| 20260501200027 | 14 | 313 | 17.7 | 25.7 | 0.00 | 0.00 | 0.00 | 59 | 1012.2 |
| 20260501195524 | 14 | 334 | 8.0 | 20.9 | 0.00 | 0.00 | 0.00 | 54 | 1012.2 |
| 20260501195019 | 15 | 311 | 11.3 | 17.7 | 0.00 | 0.00 | 0.00 | 49 | 1011.9 |
| 20260501194515 | 15 | 262 | 6.4 | 12.9 | 0.00 | 0.00 | 0.00 | 48 | 1011.9 |
| 20260501194011 | 15 | 319 | 8.0 | 9.7 | 0.00 | 0.00 | 0.00 | 49 | 1011.8 |
| 20260501193509 | 15 | 215 | 3.2 | 11.3 | 0.00 | 0.00 | 0.00 | 43 | 1011.8 |
| 20260501193007 | 16 | 311 | 11.3 | 16.1 | 0.00 | 0.00 | 0.00 | 45 | 1011.6 |
| 20260501192504 | 16 | 250 | 6.4 | 6.4 | 0.00 | 0.00 | 0.00 | 44 | 1011.9 |
| 20260501192001 | 16 | 307 | 6.4 | 9.7 | 0.00 | 0.00 | 0.00 | 44 | 1011.8 |
| 20260501191458 | 16 | 252 | 6.4 | 22.5 | 0.00 | 0.00 | 0.00 | 45 | 1011.6 |
| 20260501190955 | 16 | 321 | 4.8 | 6.4 | 0.00 | 0.00 | 0.00 | 41 | 1011.9 |
| 20260501190451 | 16 | 327 | 3.2 | 12.9 | 0.00 | 0.00 | 0.00 | 43 | 1011.8 |
| 20260501185946 | 16 | 282 | 8.0 | 17.7 | 0.00 | 0.00 | 0.00 | 41 | 1011.7 |
| 20260501185442 | 16 | 308 | 8.0 | 17.7 | 0.00 | 0.00 | 0.00 | 43 | 1011.6 |
| 20260501184939 | 16 | 308 | 12.9 | 16.1 | 0.00 | 0.00 | 0.00 | 44 | 1011.8 |
| 20260501184435 | 16 | 319 | 6.4 | 14.5 | 0.00 | 0.00 | 0.00 | 40 | 1011.5 |
| 20260501183930 | 17 | 264 | 8.0 | 12.9 | 0.00 | 0.00 | 0.00 | 41 | 1011.7 |
| 20260501183427 | 17 | 225 | 11.3 | 17.7 | 0.00 | 0.00 | 0.00 | 36 | 1011.6 |
| 20260501182924 | 16 | 237 | 6.4 | 14.5 | 0.00 | 0.00 | 0.00 | 40 | 1011.8 |
| 20260501182421 | 16 | 317 | 3.2 | 14.5 | 0.00 | 0.00 | 0.00 | 40 | 1011.8 |
| 20260501181917 | 16 | 298 | 9.7 | 20.9 | 0.00 | 0.00 | 0.00 | 38 | 1012.0 |
| 20260501181415 | 16 | 245 | 11.3 | 17.7 | 0.00 | 0.00 | 0.00 | 38 | 1012.0 |
| 20260501180912 | 16 | 313 | 16.1 | 17.7 | 0.00 | 0.00 | 0.00 | 36 | 1011.9 |
| 20260501180408 | 16 | 258 | 3.2 | 12.9 | 0.00 | 0.00 | 0.00 | 41 | 1011.9 |
| 20260501175905 | 16 | 308 | 12.9 | 14.5 | 0.00 | 0.00 | 0.00 | 37 | 1011.9 |
| 20260501175402 | 16 | 307 | 12.9 | 17.7 | 0.00 | 0.00 | 0.00 | 39 | 1012.0 |
| 20260501174859 | 16 | 321 | 11.3 | 17.7 | 0.00 | 0.00 | 0.00 | 35 | 1012.0 |
| 20260501174356 | 16 | 309 | 11.3 | 20.9 | 0.00 | 0.00 | 0.00 | 35 | 1012.0 |
| 20260501173854 | 16 | 192 | 9.7 | 11.3 | 0.00 | 0.00 | 0.00 | 38 | 1012.1 |
| 20260501173351 | 16 | 242 | 11.3 | 25.7 | 0.00 | 0.00 | 0.00 | 36 | 1012.0 |
| 20260501172847 | 16 | 310 | 11.3 | 14.5 | 0.00 | 0.00 | 0.00 | 38 | 1012.0 |
| 20260501172342 | 16 | 304 | 9.7 | 25.7 | 0.00 | 0.00 | 0.00 | 34 | 1012.1 |
| 20260501171837 | 16 | 329 | 11.3 | 17.7 | 0.00 | 0.00 | 0.00 | 39 | 1011.9 |
| 20260501171335 | 16 | 316 | 4.8 | 16.1 | 0.00 | 0.00 | 0.00 | 37 | 1012.0 |
| 20260501170831 | 16 | 307 | 6.4 | 12.9 | 0.00 | 0.00 | 0.00 | 34 | 1012.2 |
| 20260501170328 | 16 | 295 | 6.4 | 9.7 | 0.00 | 0.00 | 0.00 | 41 | 1012.3 |
| 20260501165826 | 15 | 257 | 6.4 | 9.7 | 0.00 | 0.00 | 0.00 | 41 | 1012.4 |
| 20260501165324 | 16 | 234 | 3.2 | 16.1 | 0.00 | 0.00 | 0.00 | 38 | 1012.5 |
| 20260501164821 | 16 | 158 | 4.8 | 14.5 | 0.00 | 0.00 | 0.00 | 40 | 1012.3 |
| 20260501164319 | 15 | 180 | 0.0 | 1.6 | 0.00 | 0.00 | 0.00 | 44 | 1012.4 |
| 20260501163814 | 15 | 236 | 9.7 | 11.3 | 0.00 | 0.00 | 0.00 | 43 | 1012.6 |
| 20260501163311 | 15 | 326 | 3.2 | 4.8 | 0.00 | 0.00 | 0.00 | 42 | 1012.6 |
| 20260501162808 | 14 | 265 | 6.4 | 14.5 | 0.00 | 0.00 | 0.00 | 45 | 1012.6 |
| 20260501162306 | 15 | 252 | 12.9 | 16.1 | 0.00 | 0.00 | 0.00 | 42 | 1012.7 |
| 20260501161801 | 15 | 292 | 4.8 | 16.1 | 0.00 | 0.00 | 0.00 | 41 | 1012.9 |
| 20260501161259 | 15 | 263 | 1.6 | 9.7 | 0.00 | 0.00 | 0.00 | 42 | 1012.8 |
| 20260501160754 | 14 | 309 | 9.7 | 11.3 | 0.00 | 0.00 | 0.00 | 48 | 1013.0 |
| 20260501160252 | 14 | 272 | 0.0 | 4.8 | 0.00 | 0.00 | 0.00 | 43 | 1013.0 |